FREGAT DEB

Last updated on Fri Jan 16 2026 00:02:10 GMT+0000 (Coordinated Universal Time)

1 49271U 11037PF 26015.24184448 .00034049 00000+0 65421-1 0 9992 2 49271 51.5970 100.2711 0901721 297.7796 53.4474 12.35792458206079
UTC large
Height (km)
Speed (km/s)
/
Latitude / Longitude
Inclination (degrees)
Orbital Period (minutes)
Azimuth
Elevation
Range (km)
Doppler Factor

Next 0 passes for location: London (51.5072 / 0.1276)

Sorry there are no passes over London.